Location: Les Jeannots
(43.2262°N, 5.5774°E)
Time: 08:11:27
(UTC+00:00)

SL-16 R/B - Pass Details

Date: 05 July 2020
Orbit: 842 x 846 km, 71.0° (Epoch: 04 August)

Event Time Altitude Azimuth Distance (km) Brightness Sun altitude
Rises 20:49:33 0° 237° (WSW) 3,393 5.4 -13.1°
Reaches altitude 10° 20:52:20 10° 249° (WSW) 2,462 4.9 -13.4°
Maximum altitude 20:57:08 28° 307° (NW) 1,542 4.4 -13.9°
Drops below altitude 10° 21:01:59 10° 6° (N) 2,476 5.3 -14.5°
Sets 21:04:48 0° 18° (NNE) 3,415 5.9 -14.8°
